TITAN 3C TRANSTAGE DEB, 27864

Orbit data source: Space-Track

TITAN 3C TRANSTAGE DEB, 27864 is space debris in HEO originally from a launch on Tue, 21 Dec 1965 UTC launched from the Air Force Eastern Test Range (AFETR). Debris objects in space refer to the collection of defunct objects orbiting the Earth. Examples of debris include non-operational satellites, rocket bodies, and fragments generated from explosions, collisions, or faulty payload assembly.

Loading next visibility...
Identifier
27864, 1965-108BK
Orbit
HEO
Country
Flag of USUS
Related business
Manufacturer
Unknown
Mission
Spacecraft
Bus & Motor
Unknown
Mass
Unknown
Launch date (UTC)
1965-12-21 (61 years ago)
Launch vehicle
Unknown
Launch site
Air Force Eastern Test Range (AFETR)
Object type
Payload
Rocket body
Debris
Shape & HBR
Unknown shape, 0.2 m
Radar Cross Section
Medium (>0.1 m² and <1 m²)

Expand to show TLE details & history
Last TLE update: 2 days ago

TLE from 2 days ago
0 TITAN 3C TRANSTAGE DEB
1 27864U 65108BK  26254.22560016 -.00000167  00000-0 -85516-2 0  9991
2 27864  26.5581 147.4320 6716731 302.5876 294.2122  2.66382043136982
Epoch: 2026-09-11T05:24Z
TLE epoch observation values (Epoch: 2026-09-11T05:24:51.853Z)
Latitude
8.23229°
Longitude
-120.82468°
Altitude
18,982.759 km
Speed
3.647 km/s
True Right ascension
20h 42m 34s
True Declination
8° 13' 07"
Sunlit
Object was in daylight at epoch
Visualization orbit readout
Latitude
Unknown
Longitude
Unknown
Altitude
Unknown
Speed
Unknown
Apparent Right ascension
Unknown
Apparent Declination
Unknown
Sunlit
N/A
Visualization observer readout
Local Sidereal Time
14:49:55
Azimuth
Unknown
Elevation
Unknown
Doppler factor
Unknown
Orbital elements
Apogee altitude
30,374.203 km
Perigee altitude
840.249 km
Semi-major axis
21,985.363 km
Eccentricity
0.67167
Inclination
26.5581°
RAAN
147.432°
Arg. of periapsis
302.5876°
True anomaly
218.67783°
Mean anomaly
294.2122°
Eccentric anomaly
256.75229°
Mean motion
0.6658 °/min
Orbital period
540.7 mins
BSTAR
-0.0085516
Loading maneuver chart data...
Computing Atmospheric mass density...

Documentation

Showing up to 5 results
|